| time (UTC) | temp F | wind direction | speed MPH | gust MPH | rain 1hr in | rain 24hr in | rain mn in | humidity % | barometer mb |
| 20260506020013 | 48 | 7 | 0.0 | 0.0 | 0.00 | 0.54 | 0.54 | 1 | 1012.0 |
| 20260506015555 | 48 | 7 | 0.0 | 0.0 | 0.00 | 0.54 | 0.54 | 1 | 1012.0 |
| 20260506015034 | 48 | 7 | 0.0 | 0.0 | 0.00 | 0.54 | 0.54 | 1 | 1012.0 |
| 20260506014506 | 48 | 7 | 0.0 | 0.0 | 0.00 | 0.54 | 0.54 | 1 | 1011.9 |
| 20260506014047 | 48 | 7 | 0.0 | 0.0 | 0.00 | 0.54 | 0.54 | 1 | 1012.0 |
| 20260506013523 | 48 | 7 | 0.0 | 0.0 | 0.00 | 0.54 | 0.54 | 1 | 1012.0 |
| 20260506013104 | 49 | 7 | 0.0 | 0.0 | 0.00 | 0.54 | 0.54 | 1 | 1012.0 |
| 20260506012540 | 49 | 7 | 0.0 | 0.0 | 0.00 | 0.54 | 0.54 | 1 | 1011.9 |
| 20260506012015 | 49 | 7 | 0.0 | 0.0 | 0.00 | 0.54 | 0.54 | 1 | 1011.7 |
| 20260506011617 | 49 | 7 | 0.0 | 0.0 | 0.00 | 0.54 | 0.54 | 1 | 1011.7 |
| 20260506011031 | 49 | 7 | 0.0 | 0.0 | 0.00 | 0.54 | 0.54 | 1 | 1011.7 |
| 20260506010508 | 49 | 7 | 0.0 | 0.0 | 0.00 | 0.54 | 0.54 | 1 | 1011.7 |
| 20260506010059 | 49 | 7 | 0.0 | 0.0 | 0.00 | 0.54 | 0.54 | 1 | 1011.4 |
| 20260506005526 | 49 | 7 | 0.0 | 0.0 | 0.00 | 0.54 | 0.54 | 1 | 1011.5 |
| 20260506005001 | 49 | 7 | 0.0 | 0.0 | 0.00 | 0.54 | 0.54 | 1 | 1011.7 |
| 20260506004601 | 49 | 7 | 0.0 | 0.0 | 0.00 | 0.54 | 0.54 | 1 | 1011.7 |
| 20260506004019 | 49 | 7 | 0.0 | 0.0 | 0.00 | 0.54 | 0.54 | 1 | 1011.8 |
| 20260506003559 | 49 | 7 | 0.0 | 0.0 | 0.00 | 0.54 | 0.54 | 1 | 1011.7 |
| 20260506003044 | 49 | 7 | 0.0 | 0.0 | 0.00 | 0.54 | 0.54 | 1 | 1011.3 |
| 20260506002511 | 49 | 7 | 0.0 | 0.0 | 0.00 | 0.54 | 0.54 | 1 | 1011.2 |
| 20260506002049 | 49 | 7 | 0.0 | 0.0 | 0.00 | 0.54 | 0.54 | 1 | 1011.2 |
| 20260506001524 | 49 | 7 | 0.0 | 0.0 | 0.00 | 0.54 | 0.54 | 1 | 1011.2 |
| 20260506001105 | 49 | 7 | 0.0 | 0.0 | 0.00 | 0.54 | 0.54 | 1 | 1011.2 |
| 20260506000541 | 49 | 7 | 0.0 | 0.0 | 0.00 | 0.54 | 0.54 | 1 | 1011.0 |
| 20260506000017 | 49 | 7 | 0.0 | 1.0 | 0.00 | 0.54 | 0.54 | 1 | 1010.8 |
| 20260505235557 | 49 | 7 | 0.0 | 1.0 | 0.00 | 0.54 | 0.54 | 1 | 1010.8 |
| 20260505235033 | 49 | 6 | 0.0 | 0.0 | 0.00 | 0.54 | 0.54 | 1 | 1011.1 |
| 20260505234513 | 49 | 6 | 0.0 | 0.0 | 0.00 | 0.54 | 0.54 | 1 | 1011.1 |
| 20260505234051 | 49 | 6 | 0.0 | 0.0 | 0.00 | 0.54 | 0.54 | 1 | 1011.0 |
| 20260505233532 | 49 | 6 | 0.0 | 0.0 | 0.00 | 0.54 | 0.54 | 1 | 1011.3 |
| 20260505233007 | 49 | 6 | 0.0 | 0.0 | 0.00 | 0.54 | 0.54 | 1 | 1011.5 |
| 20260505232545 | 49 | 6 | 0.0 | 0.0 | 0.00 | 0.54 | 0.54 | 1 | 1011.4 |
| 20260505232020 | 49 | 6 | 0.0 | 0.0 | 0.00 | 0.54 | 0.54 | 1 | 1011.3 |
| 20260505231601 | 49 | 6 | 0.0 | 0.0 | 0.00 | 0.54 | 0.54 | 1 | 1011.3 |
| 20260505231036 | 49 | 6 | 0.0 | 0.0 | 0.00 | 0.54 | 0.54 | 1 | 1011.3 |
| 20260505230513 | 49 | 6 | 0.0 | 0.0 | 0.00 | 0.54 | 0.54 | 1 | 1011.3 |
| 20260505230052 | 49 | 6 | 0.0 | 0.0 | 0.00 | 0.54 | 0.54 | 1 | 1011.1 |
| 20260505225529 | 49 | 6 | 0.0 | 0.0 | 0.00 | 0.54 | 0.54 | 1 | 1011.2 |
| 20260505225007 | 49 | 6 | 0.0 | 1.0 | 0.00 | 0.54 | 0.54 | 1 | 1011.2 |
| 20260505224546 | 49 | 6 | 0.0 | 1.0 | 0.00 | 0.54 | 0.54 | 1 | 1011.2 |
| 20260505224019 | 49 | 6 | 0.0 | 1.0 | 0.00 | 0.54 | 0.54 | 1 | 1011.2 |
| 20260505223600 | 48 | 6 | 0.0 | 1.0 | 0.00 | 0.54 | 0.54 | 1 | 1011.1 |
| 20260505223036 | 49 | 6 | 0.0 | 1.0 | 0.00 | 0.54 | 0.54 | 1 | 1011.2 |
| 20260505222515 | 49 | 6 | 0.0 | 0.0 | 0.00 | 0.54 | 0.54 | 1 | 1011.3 |
| 20260505222054 | 48 | 6 | 0.0 | 2.0 | 0.00 | 0.54 | 0.54 | 1 | 1011.3 |
| 20260505221530 | 48 | 6 | 0.0 | 2.0 | 0.00 | 0.54 | 0.54 | 1 | 1011.1 |
| 20260505221005 | 48 | 6 | 0.0 | 2.0 | 0.00 | 0.54 | 0.54 | 1 | 1011.2 |
| 20260505220545 | 48 | 6 | 0.0 | 2.0 | 0.00 | 0.54 | 0.54 | 1 | 1011.2 |
| 20260505220029 | 48 | 31 | 0.0 | 1.0 | 0.00 | 0.54 | 0.54 | 1 | 1011.3 |
| 20260505215605 | 48 | 31 | 0.0 | 4.0 | 0.00 | 0.54 | 0.54 | 1 | 1011.3 |
| 20260505215039 | 48 | 20 | 2.0 | 4.0 | 0.00 | 0.54 | 0.54 | 1 | 1011.0 |
| 20260505214522 | 48 | 10 | 0.0 | 2.0 | 0.00 | 0.54 | 0.54 | 1 | 1011.0 |
| 20260505214057 | 48 | 354 | 0.0 | 1.0 | 0.00 | 0.54 | 0.54 | 1 | 1011.1 |
| 20260505213532 | 48 | 354 | 0.0 | 1.0 | 0.00 | 0.54 | 0.54 | 1 | 1011.2 |
| 20260505213008 | 48 | 354 | 0.0 | 0.0 | 0.00 | 0.54 | 0.54 | 1 | 1011.1 |
| 20260505212550 | 48 | 354 | 0.0 | 0.0 | 0.00 | 0.54 | 0.54 | 1 | 1011.2 |
| 20260505212025 | 47 | 354 | 0.0 | 0.0 | 0.00 | 0.54 | 0.54 | 1 | 1011.4 |
| 20260505211502 | 47 | 354 | 0.0 | 0.0 | 0.00 | 0.54 | 0.54 | 1 | 1011.3 |
| 20260505211043 | 47 | 354 | 0.0 | 1.0 | 0.00 | 0.54 | 0.54 | 1 | 1011.3 |
| 20260505210518 | 48 | 354 | 0.0 | 1.0 | 0.00 | 0.54 | 0.54 | 1 | 1011.3 |
| 20260505210058 | 47 | 354 | 0.0 | 0.0 | 0.00 | 0.54 | 0.54 | 1 | 1011.4 |
| 20260505205534 | 47 | 354 | 0.0 | 0.0 | 0.00 | 0.54 | 0.54 | 1 | 1011.4 |
| 20260505205011 | 47 | 354 | 0.0 | 0.0 | 0.01 | 0.54 | 0.54 | 1 | 1011.2 |
| 20260505204551 | 47 | 354 | 0.0 | 0.0 | 0.01 | 0.54 | 0.54 | 1 | 1011.4 |
| 20260505204028 | 47 | 354 | 0.0 | 0.0 | 0.01 | 0.54 | 0.54 | 1 | 1011.5 |
| 20260505203504 | 47 | 354 | 0.0 | 0.0 | 0.01 | 0.54 | 0.54 | 1 | 1011.4 |
| 20260505203045 | 47 | 354 | 0.0 | 0.0 | 0.01 | 0.54 | 0.54 | 1 | 1011.4 |
| 20260505202524 | 47 | 354 | 0.0 | 0.0 | 0.01 | 0.54 | 0.54 | 1 | 1011.4 |
| 20260505202103 | 47 | 354 | 0.0 | 0.0 | 0.01 | 0.54 | 0.54 | 1 | 1011.5 |
| 20260505201539 | 47 | 354 | 0.0 | 0.0 | 0.01 | 0.54 | 0.54 | 1 | 1011.3 |
| 20260505201014 | 47 | 354 | 0.0 | 1.0 | 0.01 | 0.54 | 0.54 | 1 | 1011.0 |
| 20260505200555 | 47 | 354 | 0.0 | 1.0 | 0.01 | 0.54 | 0.54 | 1 | 1010.9 |
| 20260505200032 | 47 | 354 | 0.0 | 0.0 | 0.01 | 0.54 | 0.54 | 1 | 1010.8 |
| 20260505195508 | 47 | 354 | 0.0 | 0.0 | 0.01 | 0.54 | 0.54 | 1 | 1011.0 |
| 20260505195049 | 47 | 354 | 0.0 | 0.0 | 0.00 | 0.53 | 0.53 | 1 | 1011.2 |
| 20260505194533 | 46 | 354 | 0.0 | 0.0 | 0.00 | 0.53 | 0.53 | 1 | 1011.3 |
| 20260505194003 | 46 | 354 | 0.0 | 0.0 | 0.00 | 0.53 | 0.53 | 1 | 1011.4 |
| 20260505193544 | 47 | 354 | 0.0 | 1.0 | 0.00 | 0.53 | 0.53 | 1 | 1011.5 |
| 20260505193033 | 46 | 354 | 0.0 | 1.0 | 0.00 | 0.53 | 0.53 | 1 | 1011.4 |
| 20260505192558 | 46 | 354 | 0.0 | 0.0 | 0.00 | 0.53 | 0.53 | 1 | 1011.2 |
| 20260505192034 | 46 | 354 | 0.0 | 0.0 | 0.00 | 0.53 | 0.53 | 1 | 1011.0 |
| 20260505191511 | 46 | 354 | 0.0 | 0.0 | 0.00 | 0.53 | 0.53 | 1 | 1011.1 |
| 20260505191052 | 46 | 354 | 0.0 | 0.0 | 0.00 | 0.53 | 0.53 | 1 | 1011.1 |
| 20260505190527 | 46 | 354 | 0.0 | 0.0 | 0.00 | 0.53 | 0.53 | 1 | 1011.2 |
| 20260505190004 | 46 | 354 | 0.0 | 0.0 | 0.00 | 0.53 | 0.53 | 1 | 1011.2 |
| 20260505185543 | 46 | 354 | 0.0 | 0.0 | 0.00 | 0.53 | 0.53 | 1 | 1011.2 |
| 20260505185019 | 46 | 354 | 0.0 | 0.0 | 0.00 | 0.53 | 0.53 | 1 | 1011.3 |
| 20260505184608 | 46 | 354 | 0.0 | 1.0 | 0.00 | 0.53 | 0.53 | 1 | 1011.4 |
| 20260505184036 | 46 | 354 | 0.0 | 1.0 | 0.00 | 0.53 | 0.53 | 1 | 1011.4 |
| 20260505183512 | 46 | 354 | 0.0 | 0.0 | 0.00 | 0.53 | 0.53 | 1 | 1011.5 |
| 20260505183052 | 46 | 354 | 0.0 | 1.0 | 0.00 | 0.53 | 0.53 | 1 | 1011.3 |
| 20260505182528 | 45 | 354 | 0.0 | 2.0 | 0.00 | 0.53 | 0.53 | 1 | 1011.7 |
| 20260505182005 | 45 | 354 | 0.0 | 2.0 | 0.00 | 0.53 | 0.53 | 1 | 1011.5 |
| 20260505181546 | 45 | 339 | 0.0 | 3.0 | 0.01 | 0.53 | 0.53 | 1 | 1011.7 |
| 20260505181023 | 45 | 339 | 0.0 | 3.0 | 0.01 | 0.53 | 0.53 | 1 | 1011.8 |
| 20260505180603 | 45 | 331 | 0.0 | 2.0 | 0.01 | 0.53 | 0.53 | 1 | 1011.9 |
| 20260505180051 | 45 | 354 | 0.0 | 4.0 | 0.01 | 0.53 | 0.53 | 1 | 1012.0 |
| 20260505175517 | 45 | 347 | 1.0 | 4.0 | 0.03 | 0.53 | 0.53 | 1 | 1012.0 |
| 20260505175100 | 45 | 347 | 1.0 | 2.0 | 0.03 | 0.53 | 0.53 | 1 | 1012.1 |
| 20260505174540 | 45 | 342 | 0.0 | 2.0 | 0.05 | 0.53 | 0.53 | 1 | 1011.8 |
| 20260505174011 | 46 | 283 | 0.0 | 1.0 | 0.06 | 0.53 | 0.53 | 1 | 1011.5 |
| 20260505173551 | 45 | 184 | 0.0 | 1.0 | 0.06 | 0.53 | 0.53 | 1 | 1011.1 |
| 20260505173027 | 45 | 179 | 0.0 | 2.0 | 0.06 | 0.53 | 0.53 | 1 | 1011.5 |
| 20260505172503 | 45 | 181 | 0.0 | 2.0 | 0.06 | 0.53 | 0.53 | 1 | 1011.8 |
| 20260505172043 | 46 | 167 | 0.0 | 1.0 | 0.06 | 0.53 | 0.53 | 1 | 1011.7 |
| 20260505171519 | 46 | 232 | 0.0 | 2.0 | 0.05 | 0.52 | 0.52 | 1 | 1011.6 |
| 20260505171103 | 46 | 212 | 0.0 | 1.0 | 0.06 | 0.52 | 0.52 | 1 | 1011.8 |
| 20260505170536 | 46 | 5 | 0.0 | 1.0 | 0.06 | 0.52 | 0.52 | 1 | 1011.9 |
| 20260505170023 | 46 | 5 | 0.0 | 4.0 | 0.06 | 0.51 | 0.51 | 1 | 1011.7 |
| 20260505165553 | 46 | 5 | 0.0 | 4.0 | 0.06 | 0.50 | 0.50 | 1 | 1011.6 |
| 20260505165029 | 46 | 310 | 0.0 | 4.0 | 0.05 | 0.49 | 0.49 | 1 | 1011.2 |
| 20260505164505 | 46 | 356 | 1.0 | 3.0 | 0.04 | 0.48 | 0.48 | 1 | 1011.8 |
| 20260505164045 | 46 | 1 | 0.0 | 3.0 | 0.03 | 0.47 | 0.47 | 1 | 1012.1 |
| 20260505163521 | 46 | 31 | 1.0 | 4.0 | 0.03 | 0.47 | 0.47 | 1 | 1011.9 |
| 20260505163101 | 46 | 17 | 1.0 | 4.0 | 0.03 | 0.47 | 0.47 | 1 | 1012.0 |
| 20260505162536 | 46 | 359 | 0.0 | 5.0 | 0.03 | 0.47 | 0.47 | 1 | 1012.0 |
| 20260505162013 | 46 | 8 | 1.0 | 5.0 | 0.03 | 0.47 | 0.47 | 1 | 1012.0 |
| 20260505161601 | 46 | 333 | 0.0 | 5.0 | 0.03 | 0.47 | 0.47 | 1 | 1011.8 |
| 20260505161032 | 46 | 9 | 2.0 | 5.0 | 0.02 | 0.46 | 0.46 | 1 | 1011.7 |
| 20260505160505 | 46 | 353 | 1.0 | 5.0 | 0.02 | 0.46 | 0.46 | 1 | 1011.7 |
| 20260505153042 | 47 | 327 | 3.0 | 7.0 | 0.03 | 0.44 | 0.44 | 1 | 1011.0 |
| 20260505152510 | 47 | 18 | 1.0 | 7.0 | 0.04 | 0.44 | 0.44 | 1 | 1011.2 |
| 20260505152049 | 47 | 359 | 2.0 | 5.0 | 0.05 | 0.44 | 0.44 | 1 | 1011.4 |
| 20260505151529 | 47 | 336 | 2.0 | 5.0 | 0.05 | 0.44 | 0.44 | 1 | 1011.2 |
| 20260505151001 | 48 | 352 | 0.0 | 4.0 | 0.05 | 0.44 | 0.44 | 1 | 1011.2 |
| 20260505150542 | 47 | 313 | 0.0 | 4.0 | 0.06 | 0.44 | 0.44 | 1 | 1011.2 |
| 20260505140518 | 46 | 353 | 0.0 | 6.0 | 0.03 | 0.38 | 0.38 | 1 | 1011.3 |
| 20260505124519 | 48 | 11 | 1.0 | 5.0 | 0.00 | 0.34 | 0.34 | 1 | 1008.6 |
| 20260505124059 | 48 | 27 | 0.0 | 4.0 | 0.00 | 0.34 | 0.34 | 1 | 1008.5 |
| 20260505123535 | 48 | 38 | 1.0 | 4.0 | 0.00 | 0.34 | 0.34 | 1 | 1009.1 |
| 20260505123011 | 48 | 343 | 0.0 | 4.0 | 0.00 | 0.34 | 0.34 | 1 | 1009.0 |
| 20260505122552 | 48 | 330 | 1.0 | 4.0 | 0.00 | 0.34 | 0.34 | 1 | 1008.9 |
| 20260505122026 | 48 | 333 | 1.0 | 4.0 | 0.00 | 0.34 | 0.34 | 1 | 1008.7 |
| 20260505121502 | 48 | 326 | 0.0 | 5.0 | 0.00 | 0.34 | 0.34 | 1 | 1008.7 |
| 20260505121042 | 48 | 355 | 0.0 | 5.0 | 0.00 | 0.34 | 0.34 | 1 | 1008.6 |
| 20260505120521 | 48 | 14 | 1.0 | 4.0 | 0.00 | 0.34 | 0.34 | 1 | 1008.5 |
| 20260505120059 | 48 | 339 | 1.0 | 2.0 | 0.00 | 0.34 | 0.34 | 1 | 1008.3 |
| 20260505115535 | 48 | 2 | 0.0 | 2.0 | 0.00 | 0.34 | 0.34 | 1 | 1008.5 |
| 20260505115011 | 48 | 338 | 0.0 | 2.0 | 0.00 | 0.34 | 0.34 | 1 | 1008.8 |
| 20260505114611 | 48 | 354 | 0.0 | 2.0 | 0.00 | 0.34 | 0.34 | 1 | 1008.7 |
| 20260505114028 | 48 | 357 | 0.0 | 1.0 | 0.00 | 0.34 | 0.34 | 1 | 1008.5 |
| 20260505113504 | 48 | 357 | 0.0 | 4.0 | 0.00 | 0.34 | 0.34 | 1 | 1008.3 |
| 20260505113045 | 47 | 357 | 0.0 | 4.0 | 0.00 | 0.34 | 0.34 | 1 | 1008.0 |
| 20260505112520 | 47 | 338 | 1.0 | 4.0 | 0.00 | 0.34 | 0.34 | 1 | 1008.0 |
| 20260505112008 | 47 | 350 | 1.0 | 5.0 | 0.00 | 0.34 | 0.34 | 1 | 1007.8 |
| 20260505111601 | 48 | 326 | 0.0 | 8.0 | 0.00 | 0.34 | 0.34 | 1 | 1007.8 |
| 20260505111022 | 48 | 1 | 0.0 | 8.0 | 0.00 | 0.34 | 0.34 | 1 | 1007.8 |
| 20260505110604 | 48 | 333 | 1.0 | 6.0 | 0.00 | 0.34 | 0.34 | 1 | 1007.9 |
| 20260505102041 | 47 | 38 | 3.0 | 7.0 | 0.00 | 0.34 | 0.34 | 1 | 1008.0 |
| 20260505101518 | 47 | 348 | 3.0 | 6.0 | 0.00 | 0.34 | 0.34 | 1 | 1008.0 |
| 20260505101059 | 47 | 353 | 2.0 | 5.0 | 0.00 | 0.34 | 0.34 | 1 | 1007.8 |
| 20260505100535 | 47 | 328 | 2.0 | 5.0 | 0.00 | 0.34 | 0.34 | 1 | 1007.9 |
| 20260505100011 | 47 | 27 | 1.0 | 6.0 | 0.00 | 0.34 | 0.34 | 1 | 1007.8 |
| 20260505095552 | 47 | 346 | 2.0 | 7.0 | 0.00 | 0.34 | 0.34 | 1 | 1007.7 |
| 20260505095027 | 47 | 32 | 3.0 | 7.0 | 0.00 | 0.34 | 0.34 | 1 | 1007.5 |
| 20260505094502 | 47 | 340 | 2.0 | 6.0 | 0.00 | 0.34 | 0.34 | 1 | 1007.5 |
| 20260505094045 | 47 | 333 | 1.0 | 5.0 | 0.00 | 0.34 | 0.34 | 1 | 1007.5 |
| 20260505093520 | 47 | 341 | 1.0 | 6.0 | 0.00 | 0.34 | 0.34 | 1 | 1007.2 |
| 20260505093101 | 47 | 2 | 1.0 | 6.0 | 0.01 | 0.34 | 0.34 | 1 | 1007.1 |
| 20260505092537 | 47 | 339 | 1.0 | 6.0 | 0.05 | 0.34 | 0.34 | 1 | 1007.0 |
| 20260505092013 | 47 | 354 | 2.0 | 7.0 | 0.07 | 0.34 | 0.34 | 1 | 1007.3 |
| 20260505091554 | 47 | 29 | 1.0 | 7.0 | 0.09 | 0.34 | 0.34 | 1 | 1007.3 |
| 20260505091029 | 47 | 20 | 0.0 | 8.0 | 0.11 | 0.34 | 0.34 | 1 | 1007.0 |
| 20260505090506 | 47 | 10 | 2.0 | 8.0 | 0.12 | 0.34 | 0.34 | 1 | 1006.5 |
| 20260505090053 | 47 | 346 | 1.0 | 8.0 | 0.13 | 0.34 | 0.34 | 1 | 1006.2 |
| 20260505085526 | 47 | 22 | 4.0 | 12.0 | 0.15 | 0.34 | 0.34 | 1 | 1005.4 |
| 20260505085001 | 47 | 360 | 3.0 | 15.0 | 0.15 | 0.34 | 0.34 | 1 | 1004.3 |
| 20260505084542 | 47 | 331 | 4.0 | 15.0 | 0.16 | 0.34 | 0.34 | 1 | 1003.7 |
| 20260505084018 | 48 | 326 | 4.0 | 9.0 | 0.16 | 0.34 | 0.34 | 1 | 1003.4 |
| 20260505083559 | 48 | 305 | 4.0 | 9.0 | 0.17 | 0.34 | 0.34 | 1 | 1004.4 |
| 20260505083044 | 48 | 326 | 1.0 | 5.0 | 0.17 | 0.33 | 0.33 | 1 | 1006.5 |
| 20260505082510 | 49 | 18 | 0.0 | 3.0 | 0.13 | 0.28 | 0.28 | 1 | 1007.7 |
| 20260505082051 | 49 | 319 | 1.0 | 3.0 | 0.11 | 0.27 | 0.27 | 1 | 1007.8 |
| 20260505081533 | 49 | 337 | 0.0 | 2.0 | 0.08 | 0.24 | 0.24 | 1 | 1007.5 |
| 20260505081009 | 50 | 318 | 0.0 | 0.0 | 0.08 | 0.23 | 0.23 | 1 | 1008.1 |
| 20260505080546 | 50 | 318 | 0.0 | 0.0 | 0.07 | 0.22 | 0.22 | 1 | 1008.5 |
| 20260505080033 | 50 | 318 | 0.0 | 0.0 | 0.06 | 0.20 | 0.20 | 1 | 1008.8 |
| 20260505075602 | 50 | 318 | 0.0 | 0.0 | 0.06 | 0.19 | 0.19 | 1 | 1008.9 |
| 20260505075037 | 50 | 318 | 0.0 | 1.0 | 0.08 | 0.19 | 0.19 | 1 | 1008.5 |
| 20260505074513 | 50 | 318 | 0.0 | 1.0 | 0.08 | 0.18 | 0.18 | 1 | 1008.1 |
| 20260505074054 | 50 | 318 | 0.0 | 4.0 | 0.08 | 0.18 | 0.18 | 1 | 1007.4 |
| 20260505073531 | 50 | 34 | 0.0 | 4.0 | 0.07 | 0.17 | 0.17 | 1 | 1006.8 |
| 20260505073006 | 51 | 354 | 0.0 | 1.0 | 0.06 | 0.16 | 0.16 | 1 | 1006.4 |
| 20260505072546 | 52 | 354 | 0.0 | 0.0 | 0.06 | 0.16 | 0.16 | 1 | 1006.4 |
| 20260505072022 | 52 | 354 | 0.0 | 1.0 | 0.06 | 0.16 | 0.16 | 1 | 1006.4 |
| 20260505071605 | 52 | 354 | 0.0 | 2.0 | 0.06 | 0.16 | 0.16 | 1 | 1006.3 |
| 20260505071038 | 52 | 351 | 0.0 | 8.0 | 0.05 | 0.15 | 0.15 | 1 | 1006.3 |
| 20260505070515 | 52 | 28 | 2.0 | 8.0 | 0.05 | 0.15 | 0.15 | 1 | 1005.9 |
| 20260505070055 | 53 | 19 | 0.0 | 5.0 | 0.04 | 0.14 | 0.14 | 1 | 1006.0 |
| 20260505065530 | 54 | 19 | 1.0 | 6.0 | 0.05 | 0.13 | 0.13 | 1 | 1006.1 |
| 20260505065005 | 55 | 34 | 0.0 | 6.0 | 0.07 | 0.11 | 0.11 | 1 | 1005.2 |
| 20260505064557 | 55 | 354 | 0.0 | 1.0 | 0.10 | 0.10 | 0.10 | 1 | 1004.9 |
| 20260505064022 | 55 | 323 | 0.0 | 2.0 | 0.10 | 0.10 | 0.10 | 1 | 1004.9 |
| 20260505063603 | 55 | 323 | 0.0 | 3.0 | 0.10 | 0.10 | 0.10 | 1 | 1004.8 |
| 20260505063046 | 56 | 15 | 0.0 | 3.0 | 0.10 | 0.10 | 0.10 | 1 | 1004.5 |
| 20260505062515 | 56 | 9 | 0.0 | 6.0 | 0.10 | 0.10 | 0.10 | 9 | 1004.4 |
| 20260505062054 | 56 | 347 | 1.0 | 6.0 | 0.10 | 0.10 | 0.10 | 62 | 1004.1 |
| 20260505061539 | 57 | 348 | 2.0 | 4.0 | 0.10 | 0.10 | 0.10 | 62 | 1004.1 |
| 20260505061009 | 57 | 10 | 2.0 | 7.0 | 0.10 | 0.10 | 0.10 | 78 | 1004.2 |
| 20260505060549 | 58 | 6 | 2.0 | 7.0 | 0.10 | 0.10 | 0.10 | 77 | 1004.0 |
| 20260505060028 | 59 | 12 | 2.0 | 7.0 | 0.09 | 0.09 | 0.09 | 76 | 1003.9 |
| 20260505055502 | 61 | 356 | 3.0 | 10.0 | 0.08 | 0.08 | 0.08 | 71 | 1003.5 |
| 20260505055043 | 63 | 24 | 3.0 | 10.0 | 0.04 | 0.04 | 0.04 | 65 | 1003.5 |
| 20260505054521 | 65 | 9 | 4.0 | 11.0 | 0.00 | 0.00 | 0.00 | 58 | 1003.7 |
| 20260505054100 | 67 | 34 | 3.0 | 8.0 | 0.00 | 0.00 | 0.00 | 56 | 1004.0 |
| 20260505053535 | 68 | 32 | 2.0 | 7.0 | 0.00 | 0.00 | 0.00 | 55 | 1003.7 |
| 20260505053011 | 69 | 24 | 1.0 | 12.0 | 0.00 | 0.00 | 0.00 | 56 | 1003.4 |
| 20260505052551 | 69 | 66 | 5.0 | 12.0 | 0.00 | 0.00 | 0.00 | 60 | 1003.0 |
| 20260505052027 | 69 | 21 | 0.0 | 4.0 | 0.00 | 0.00 | 0.00 | 68 | 1002.7 |
| 20260505051503 | 69 | 6 | 0.0 | 4.0 | 0.00 | 0.00 | 0.00 | 71 | 1002.5 |
| 20260505051042 | 69 | 357 | 0.0 | 4.0 | 0.00 | 0.00 | 0.00 | 71 | 1002.3 |
| 20260505050521 | 69 | 16 | 0.0 | 4.0 | 0.00 | 0.00 | 0.00 | 72 | 1002.3 |
| 20260505041546 | 70 | 157 | 0.0 | 3.0 | 0.00 | 0.00 | 0.00 | 70 | 1001.8 |
| 20260505041014 | 70 | 139 | 0.0 | 4.0 | 0.00 | 0.00 | 0.00 | 70 | 1002.0 |
| 20260505040555 | 70 | 171 | 0.0 | 4.0 | 0.00 | 0.00 | 0.00 | 70 | 1002.0 |
| 20260505040031 | 71 | 156 | 0.0 | 4.0 | 0.00 | 0.00 | 0.00 | 70 | 1002.1 |
| 20260505035507 | 71 | 164 | 1.0 | 4.0 | 0.00 | 0.00 | 0.00 | 70 | 1002.1 |
| 20260505035052 | 71 | 148 | 0.0 | 3.0 | 0.00 | 0.00 | 0.00 | 70 | 1002.2 |
| 20260505034523 | 71 | 153 | 0.0 | 3.0 | 0.00 | 0.00 | 0.00 | 70 | 1002.2 |
| 20260505034104 | 71 | 163 | 0.0 | 2.0 | 0.00 | 0.00 | 0.00 | 70 | 1002.1 |
| 20260505033540 | 71 | 158 | 0.0 | 2.0 | 0.00 | 0.00 | 0.00 | 70 | 1002.2 |
| 20260505033018 | 71 | 167 | 0.0 | 2.0 | 0.00 | 0.00 | 0.00 | 70 | 1002.2 |
| 20260505032602 | 71 | 199 | 0.0 | 2.0 | 0.00 | 0.00 | 0.00 | 71 | 1002.2 |
| 20260505032033 | 71 | 168 | 0.0 | 3.0 | 0.00 | 0.00 | 0.00 | 71 | 1002.1 |
| 20260505031510 | 71 | 154 | 0.0 | 3.0 | 0.00 | 0.00 | 0.00 | 71 | 1002.1 |
| 20260505031054 | 71 | 160 | 0.0 | 3.0 | 0.00 | 0.00 | 0.00 | 71 | 1002.1 |
| 20260505030527 | 71 | 160 | 0.0 | 2.0 | 0.00 | 0.00 | 0.00 | 70 | 1002.0 |
| 20260505030003 | 72 | 145 | 0.0 | 1.0 | 0.00 | 0.00 | 0.00 | 70 | 1002.0 |
| 20260505025543 | 72 | 160 | 0.0 | 0.0 | 0.00 | 0.00 | 0.00 | 70 | 1002.0 |
| 20260505025021 | 72 | 160 | 0.0 | 2.0 | 0.00 | 0.00 | 0.00 | 69 | 1001.9 |
| 20260505024601 | 72 | 163 | 0.0 | 2.0 | 0.00 | 0.00 | 0.00 | 69 | 1001.8 |
| 20260505024037 | 72 | 145 | 0.0 | 1.0 | 0.00 | 0.00 | 0.00 | 68 | 1001.8 |
| 20260505023513 | 72 | 117 | 0.0 | 1.0 | 0.00 | 0.00 | 0.00 | 67 | 1001.7 |
| 20260505023101 | 72 | 111 | 0.0 | 1.0 | 0.00 | 0.00 | 0.00 | 66 | 1001.6 |
| 20260505022532 | 72 | 165 | 0.0 | 0.0 | 0.00 | 0.00 | 0.00 | 66 | 1001.5 |
| 20260505022006 | 72 | 165 | 0.0 | 0.0 | 0.00 | 0.00 | 0.00 | 66 | 1001.4 |
| 20260505021548 | 72 | 165 | 0.0 | 0.0 | 0.00 | 0.00 | 0.00 | 65 | 1001.3 |
| 20260505021023 | 72 | 165 | 0.0 | 0.0 | 0.00 | 0.00 | 0.00 | 65 | 1001.3 |
| 20260505020604 | 72 | 165 | 0.0 | 0.0 | 0.00 | 0.00 | 0.00 | 65 | 1001.2 |